Location: *
(41.7492°S, 135.4150°W)
Time: 19:08:47
(UTC+00:00)

Cosmos 724 - Pass Details

Date: 20 September 2021
Orbit: 854 x 941 km, 65.6° (Epoch: 16 October)

Event Time Altitude Azimuth Distance (km) Brightness Sun altitude
Rises 14:04:07 0° 328° (NNW) 3,419 7.0 -10.0°
Reaches altitude 10° 14:06:34 10° 327° (NNW) 2,488 6.3 -9.6°
Maximum altitude 14:12:20 84° 238° (WSW) 876 4.3 -8.5°
Drops below altitude 10° 14:18:12 10° 149° (SSE) 2,535 7.2 -7.4°
Sets 14:20:43 0° 148° (SSE) 3,488 8.0 -7.0°
